Weather in Cherepovo

Russia / Smolensk Oblast     54°15′13″N   32°15′02″E
temp.,
°C
wind,
m/s
gust,
m/s
humid.,
%
clouds,
%
prec.,
mm/h
press.,
hPa
HPBL,
m
27 october, wed
wed2700:00+4sw61460100 0.0 1020388
03:00+4ssw51265100 0.0 1019306
06:00+3sw51271100 0.0 1018321
09:00+4sw61273100 0.0 1017411
12:00+5wsw51180100 0.1 1018443
15:00+7w5108588 0.1 1018654
18:00+8w486794 0.0 1018271
21:00+5sw5138881 0.0 1018317
28 october, thu
thu2800:00+5sw61489100 0.0 1017383
03:00+7sw71692100 1.8 1014660
06:00+8wsw71693100 2.6 1013757
09:00+10w61392100 2.9 1014594
12:00+12wnw6118353 0.1 1016911
15:00+13nw7117130 0.1 10171267
18:00+8n48875 0.1 1021201
21:00+6nnw348760 0.1 102373
29 october, fri
fri2900:00+5n22905 0.0 102518
03:00+4ese009045 0.0 102610
06:00+3s229022 0.0 102713
09:00+4ssw348915 0.0 102879
12:00+8ssw3571100 0.0 1028303
15:00+9ssw3674100 0.0 1028280
18:00+7s36844 0.0 1028100
21:00+5ssw36885 0.0 1029108
30 october, sat
sat3000:00+5ssw388812 0.0 1029134
03:00+4ssw398914 0.0 1030162
06:00+3ssw389053 0.0 1030136
09:00+3s4108798 0.0 1030201
12:00+9ssw596624 0.0 1029390
15:00+10s59645 0.0 1028523
18:00+6s4108653 0.0 1029196
21:00+5s411905 0.0 1029212
31 october, sun
sun3100:00+5s412915 0.0 1029223
03:00+4s411925 0.0 1029198
06:00+3s410913 0.0 1028183
09:00+4s411905 0.0 1028224
12:00+9ssw610685 0.0 1027444
15:00+11s59655 0.0 1026609
18:00+6sse410835 0.0 1025178
21:00+5sse512863 0.0 1025251